| time (UTC) | temp F | wind direction | speed knots | gust knots | rain 1hr in | rain 24hr in | rain mn in | humidity % | barometer mb |
| 20260510083207 | 68 | 60 | 0.0 | 0.0 | 0.00 | 0.00 | 0.00 | 89 | 1014.0 |
| 20260510082702 | 68 | 58 | 0.0 | 0.0 | 0.00 | 0.00 | 0.00 | 89 | 1014.0 |
| 20260510082159 | 68 | 61 | 0.0 | 0.0 | 0.00 | 0.00 | 0.00 | 89 | 1014.1 |
| 20260510081653 | 68 | 53 | 0.0 | 0.0 | 0.00 | 0.00 | 0.00 | 88 | 1014.4 |
| 20260510081149 | 68 | 54 | 0.0 | 0.0 | 0.00 | 0.00 | 0.00 | 88 | 1014.2 |
| 20260510080648 | 69 | 53 | 0.0 | 0.0 | 0.00 | 0.00 | 0.00 | 87 | 1013.9 |
| 20260510080146 | 69 | 46 | 0.0 | 0.0 | 0.00 | 0.00 | 0.00 | 86 | 1014.0 |
| 20260510075643 | 70 | 46 | 0.0 | 0.0 | 0.00 | 0.00 | 0.00 | 85 | 1013.9 |
| 20260510075140 | 70 | 46 | 0.0 | 0.0 | 0.00 | 0.00 | 0.00 | 84 | 1014.1 |
| 20260510074637 | 71 | 46 | 0.0 | 0.0 | 0.00 | 0.00 | 0.00 | 83 | 1014.1 |
| 20260510074132 | 71 | 57 | 0.0 | 0.0 | 0.00 | 0.00 | 0.00 | 82 | 1014.0 |
| 20260510073629 | 72 | 51 | 0.0 | 0.0 | 0.00 | 0.00 | 0.00 | 80 | 1014.0 |
| 20260510073126 | 72 | 50 | 0.0 | 0.0 | 0.00 | 0.00 | 0.00 | 80 | 1013.9 |
| 20260510072622 | 73 | 52 | 0.0 | 0.0 | 0.00 | 0.00 | 0.00 | 79 | 1014.1 |
| 20260510072119 | 73 | 78 | 0.0 | 0.9 | 0.00 | 0.00 | 0.00 | 79 | 1014.0 |
| 20260510071614 | 73 | 40 | 0.0 | 0.9 | 0.00 | 0.00 | 0.00 | 79 | 1014.1 |
| 20260510071112 | 73 | 58 | 0.0 | 0.0 | 0.00 | 0.00 | 0.00 | 78 | 1013.9 |
| 20260510070609 | 73 | 73 | 0.0 | 0.0 | 0.00 | 0.00 | 0.00 | 78 | 1013.9 |
| 20260510070107 | 73 | 51 | 0.9 | 0.9 | 0.00 | 0.00 | 0.00 | 78 | 1014.2 |
| 20260510065602 | 73 | 52 | 0.0 | 0.9 | 0.00 | 0.00 | 0.00 | 77 | 1014.1 |
| 20260510065058 | 74 | 72 | 0.0 | 0.0 | 0.00 | 0.00 | 0.00 | 76 | 1014.2 |
| 20260510064555 | 74 | 56 | 0.0 | 0.0 | 0.00 | 0.00 | 0.00 | 76 | 1014.0 |
| 20260510064052 | 74 | 44 | 0.0 | 0.0 | 0.00 | 0.00 | 0.00 | 76 | 1014.4 |
| 20260510063549 | 74 | 63 | 0.0 | 0.0 | 0.00 | 0.00 | 0.00 | 75 | 1014.1 |
| 20260510063046 | 74 | 40 | 0.0 | 0.0 | 0.00 | 0.00 | 0.00 | 75 | 1014.1 |
| 20260510062542 | 75 | 70 | 0.0 | 0.9 | 0.00 | 0.00 | 0.00 | 75 | 1014.0 |
| 20260510062037 | 75 | 58 | 0.0 | 0.0 | 0.00 | 0.00 | 0.00 | 75 | 1014.2 |
| 20260510061534 | 75 | 43 | 0.0 | 0.9 | 0.00 | 0.00 | 0.00 | 75 | 1014.5 |
| 20260510061030 | 75 | 86 | 0.0 | 0.0 | 0.00 | 0.00 | 0.00 | 75 | 1014.6 |
| 20260510060527 | 75 | 54 | 0.0 | 0.0 | 0.00 | 0.00 | 0.00 | 74 | 1014.2 |
| 20260510060023 | 75 | 54 | 0.0 | 0.0 | 0.00 | 0.00 | 0.00 | 74 | 1014.5 |
| 20260510055519 | 75 | 50 | 0.9 | 0.9 | 0.00 | 0.00 | 0.00 | 74 | 1014.2 |
| 20260510055018 | 75 | 112 | 0.0 | 0.9 | 0.00 | 0.00 | 0.00 | 74 | 1014.2 |
| 20260510054513 | 76 | 97 | 0.0 | 0.0 | 0.00 | 0.00 | 0.00 | 73 | 1014.4 |
| 20260510054008 | 76 | 43 | 0.9 | 0.9 | 0.00 | 0.00 | 0.00 | 73 | 1014.0 |
| 20260510053503 | 76 | 84 | 0.0 | 0.9 | 0.00 | 0.00 | 0.00 | 73 | 1014.1 |
| 20260510053000 | 76 | 93 | 0.0 | 0.0 | 0.00 | 0.00 | 0.00 | 73 | 1014.0 |
| 20260510052456 | 76 | 65 | 0.9 | 0.9 | 0.00 | 0.00 | 0.00 | 73 | 1014.0 |
| 20260510051952 | 76 | 51 | 0.9 | 0.9 | 0.00 | 0.00 | 0.00 | 74 | 1013.8 |
| 20260510051448 | 76 | 358 | 0.0 | 0.9 | 0.00 | 0.00 | 0.00 | 74 | 1014.0 |
| 20260510050944 | 76 | 66 | 0.0 | 0.9 | 0.00 | 0.00 | 0.00 | 74 | 1014.0 |
| 20260510050442 | 76 | 40 | 0.0 | 0.0 | 0.00 | 0.00 | 0.00 | 74 | 1013.8 |
| 20260510045939 | 76 | 76 | 0.9 | 0.9 | 0.00 | 0.00 | 0.00 | 74 | 1014.0 |
| 20260510045436 | 76 | 133 | 0.0 | 0.9 | 0.00 | 0.00 | 0.00 | 74 | 1013.7 |
| 20260510044933 | 76 | 100 | 1.7 | 1.7 | 0.00 | 0.00 | 0.00 | 75 | 1014.0 |
| 20260510044430 | 76 | 106 | 1.7 | 1.7 | 0.00 | 0.00 | 0.00 | 74 | 1013.9 |
| 20260510043926 | 77 | 57 | 0.0 | 0.9 | 0.00 | 0.00 | 0.00 | 74 | 1013.8 |
| 20260510043422 | 77 | 89 | 0.9 | 1.7 | 0.00 | 0.00 | 0.00 | 74 | 1014.0 |
| 20260510042921 | 76 | 89 | 0.0 | 0.9 | 0.00 | 0.00 | 0.00 | 74 | 1013.6 |
| 20260510042416 | 74 | 21 | 0.0 | 0.9 | 0.00 | 0.00 | 0.00 | 78 | 1013.8 |
| 20260510041912 | 73 | 74 | 0.0 | 0.0 | 0.00 | 0.00 | 0.00 | 83 | 1013.7 |
| 20260510041409 | 72 | 69 | 0.0 | 0.0 | 0.00 | 0.00 | 0.00 | 84 | 1013.5 |
| 20260510040907 | 72 | 69 | 0.0 | 0.0 | 0.00 | 0.00 | 0.00 | 85 | 1013.7 |
| 20260510040404 | 71 | 79 | 0.0 | 0.9 | 0.00 | 0.00 | 0.00 | 86 | 1013.4 |
| 20260510035859 | 71 | 72 | 0.0 | 0.0 | 0.00 | 0.00 | 0.00 | 86 | 1013.6 |
| 20260510035355 | 71 | 62 | 0.0 | 0.0 | 0.00 | 0.00 | 0.00 | 85 | 1013.5 |
| 20260510034850 | 71 | 64 | 0.0 | 0.0 | 0.00 | 0.00 | 0.00 | 85 | 1013.4 |
| 20260510034349 | 72 | 60 | 0.0 | 0.0 | 0.00 | 0.00 | 0.00 | 84 | 1013.6 |
| 20260510033845 | 72 | 54 | 0.0 | 0.0 | 0.00 | 0.00 | 0.00 | 84 | 1013.3 |
| 20260510033342 | 72 | 54 | 0.0 | 0.0 | 0.00 | 0.00 | 0.00 | 83 | 1013.3 |
| 20260510032838 | 73 | 59 | 0.0 | 0.0 | 0.00 | 0.00 | 0.00 | 81 | 1013.3 |
| 20260510032335 | 73 | 60 | 0.0 | 0.0 | 0.00 | 0.00 | 0.00 | 81 | 1013.1 |
| 20260510031831 | 73 | 60 | 0.0 | 0.0 | 0.00 | 0.00 | 0.00 | 79 | 1013.3 |
| 20260510031327 | 74 | 62 | 0.0 | 0.0 | 0.00 | 0.00 | 0.00 | 78 | 1013.3 |
| 20260510030826 | 74 | 64 | 0.0 | 0.0 | 0.00 | 0.00 | 0.00 | 78 | 1013.1 |
| 20260510030323 | 75 | 74 | 0.0 | 0.0 | 0.00 | 0.00 | 0.00 | 77 | 1013.2 |
| 20260510025820 | 75 | 72 | 0.0 | 0.0 | 0.00 | 0.00 | 0.00 | 76 | 1013.1 |
| 20260510025318 | 76 | 72 | 0.0 | 0.0 | 0.00 | 0.00 | 0.00 | 75 | 1013.2 |
| 20260510024814 | 76 | 79 | 0.9 | 0.9 | 0.00 | 0.00 | 0.00 | 74 | 1012.8 |
| 20260510024311 | 76 | 74 | 0.0 | 0.0 | 0.00 | 0.00 | 0.00 | 74 | 1013.2 |
| 20260510023808 | 77 | 71 | 0.0 | 0.0 | 0.00 | 0.00 | 0.00 | 73 | 1013.1 |
| 20260510023304 | 77 | 73 | 0.0 | 0.0 | 0.00 | 0.00 | 0.00 | 72 | 1013.1 |
| 20260510022801 | 77 | 77 | 0.0 | 0.9 | 0.00 | 0.00 | 0.00 | 71 | 1012.8 |
| 20260510022300 | 77 | 81 | 0.9 | 0.9 | 0.00 | 0.00 | 0.00 | 71 | 1012.9 |
| 20260510021800 | 78 | 81 | 0.9 | 1.7 | 0.00 | 0.00 | 0.00 | 71 | 1012.8 |
| 20260510021258 | 78 | 69 | 0.0 | 0.0 | 0.00 | 0.00 | 0.00 | 71 | 1012.6 |
| 20260510020754 | 78 | 76 | 0.9 | 0.9 | 0.00 | 0.00 | 0.00 | 70 | 1012.4 |
| 20260510020253 | 78 | 70 | 0.0 | 0.0 | 0.00 | 0.00 | 0.00 | 69 | 1012.4 |
| 20260510015750 | 79 | 77 | 0.0 | 0.0 | 0.00 | 0.00 | 0.00 | 69 | 1012.7 |
| 20260510015247 | 79 | 70 | 0.9 | 0.9 | 0.00 | 0.00 | 0.00 | 68 | 1012.6 |
| 20260510014741 | 79 | 76 | 0.9 | 0.9 | 0.00 | 0.00 | 0.00 | 67 | 1012.5 |
| 20260510014239 | 80 | 71 | 0.0 | 0.9 | 0.00 | 0.00 | 0.00 | 66 | 1012.3 |
| 20260510013735 | 80 | 83 | 0.0 | 0.9 | 0.00 | 0.00 | 0.00 | 66 | 1012.1 |
| 20260510013231 | 80 | 87 | 0.9 | 1.7 | 0.00 | 0.00 | 0.00 | 65 | 1012.1 |
| 20260510012731 | 80 | 128 | 0.9 | 0.9 | 0.00 | 0.00 | 0.00 | 65 | 1012.1 |
| 20260510012226 | 80 | 77 | 0.0 | 0.9 | 0.00 | 0.00 | 0.00 | 64 | 1012.0 |
| 20260510011727 | 81 | 118 | 1.7 | 1.7 | 0.00 | 0.00 | 0.00 | 63 | 1011.9 |
| 20260510011222 | 81 | 141 | 0.9 | 1.7 | 0.00 | 0.00 | 0.00 | 62 | 1011.9 |
| 20260510010719 | 81 | 136 | 0.0 | 0.9 | 0.00 | 0.00 | 0.00 | 61 | 1011.6 |
| 20260510010215 | 82 | 84 | 0.9 | 0.9 | 0.00 | 0.00 | 0.00 | 59 | 1011.6 |
| 20260510005712 | 82 | 73 | 0.9 | 1.7 | 0.00 | 0.00 | 0.00 | 57 | 1011.6 |
| 20260510005208 | 82 | 92 | 0.0 | 0.0 | 0.00 | 0.00 | 0.00 | 56 | 1011.5 |
| 20260510004707 | 83 | 93 | 0.9 | 1.7 | 0.00 | 0.00 | 0.00 | 54 | 1011.5 |
| 20260510004204 | 83 | 66 | 0.0 | 0.9 | 0.00 | 0.00 | 0.00 | 54 | 1011.5 |
| 20260510003701 | 83 | 93 | 0.9 | 1.7 | 0.00 | 0.00 | 0.00 | 53 | 1011.2 |
| 20260510003158 | 83 | 74 | 0.9 | 0.9 | 0.00 | 0.00 | 0.00 | 54 | 1011.5 |
| 20260510002657 | 84 | 75 | 1.7 | 2.6 | 0.00 | 0.00 | 0.00 | 60 | 1011.3 |
| 20260510002154 | 83 | 116 | 1.7 | 2.6 | 0.00 | 0.00 | 0.00 | 61 | 1011.3 |
| 20260510001651 | 82 | 57 | 0.9 | 1.7 | 0.00 | 0.00 | 0.00 | 65 | 1011.1 |
| 20260510001150 | 81 | 70 | 0.9 | 0.9 | 0.00 | 0.00 | 0.00 | 68 | 1011.0 |
| 20260510000650 | 82 | 44 | 0.0 | 0.0 | 0.00 | 0.00 | 0.00 | 72 | 1011.0 |
| 20260510000148 | 82 | 42 | 0.0 | 0.0 | 0.00 | 0.00 | 0.00 | 67 | 1010.8 |
| 20260509235644 | 83 | 43 | 0.0 | 0.0 | 0.00 | 0.00 | 0.00 | 66 | 1010.9 |
| 20260509235141 | 84 | 42 | 0.0 | 0.0 | 0.00 | 0.00 | 0.00 | 64 | 1010.9 |
| 20260509234637 | 85 | 24 | 0.0 | 0.9 | 0.00 | 0.00 | 0.00 | 62 | 1010.7 |
| 20260509234135 | 84 | 7 | 0.0 | 0.9 | 0.00 | 0.00 | 0.00 | 63 | 1010.6 |
| 20260509233632 | 83 | 41 | 0.0 | 0.9 | 0.00 | 0.00 | 0.00 | 62 | 1010.8 |
| 20260509233130 | 83 | 58 | 0.0 | 0.0 | 0.00 | 0.00 | 0.00 | 63 | 1011.0 |
| 20260509232625 | 84 | 71 | 0.9 | 0.9 | 0.00 | 0.00 | 0.00 | 61 | 1011.1 |
| 20260509232123 | 84 | 100 | 0.9 | 1.7 | 0.00 | 0.00 | 0.00 | 58 | 1011.2 |
| 20260509231619 | 86 | 112 | 1.7 | 1.7 | 0.00 | 0.00 | 0.00 | 57 | 1011.0 |
| 20260509231117 | 86 | 103 | 0.0 | 0.0 | 0.00 | 0.00 | 0.00 | 60 | 1011.1 |
| 20260509230613 | 85 | 41 | 0.0 | 0.0 | 0.00 | 0.00 | 0.00 | 62 | 1011.0 |
| 20260509230111 | 86 | 8 | 0.9 | 0.9 | 0.00 | 0.00 | 0.00 | 61 | 1011.0 |
| 20260509225606 | 86 | 35 | 0.0 | 0.0 | 0.00 | 0.00 | 0.00 | 60 | 1011.0 |
| 20260509225102 | 88 | 20 | 0.9 | 1.7 | 0.00 | 0.00 | 0.00 | 57 | 1010.9 |
| 20260509224557 | 88 | 30 | 0.9 | 0.9 | 0.00 | 0.00 | 0.00 | 53 | 1010.9 |
| 20260509224055 | 89 | 51 | 0.0 | 0.0 | 0.00 | 0.00 | 0.00 | 54 | 1010.9 |
| 20260509223551 | 89 | 69 | 0.0 | 0.0 | 0.00 | 0.00 | 0.00 | 50 | 1011.0 |
| 20260509223049 | 89 | 36 | 0.0 | 0.0 | 0.00 | 0.00 | 0.00 | 51 | 1010.9 |
| 20260509222545 | 89 | 41 | 0.0 | 0.9 | 0.00 | 0.00 | 0.00 | 49 | 1010.9 |
| 20260509222041 | 90 | 29 | 0.0 | 0.0 | 0.00 | 0.00 | 0.00 | 50 | 1010.8 |
| 20260509221537 | 91 | 58 | 0.0 | 0.9 | 0.00 | 0.00 | 0.00 | 49 | 1010.8 |
| 20260509221033 | 92 | 3 | 0.0 | 0.9 | 0.00 | 0.00 | 0.00 | 48 | 1010.6 |
| 20260509220529 | 92 | 249 | 2.6 | 2.6 | 0.00 | 0.00 | 0.00 | 45 | 1010.7 |
| 20260509220026 | 92 | 322 | 0.9 | 0.9 | 0.00 | 0.00 | 0.00 | 46 | 1010.8 |
| 20260509215521 | 92 | 126 | 0.9 | 0.9 | 0.00 | 0.00 | 0.00 | 47 | 1011.1 |
| 20260509215018 | 93 | 188 | 2.6 | 2.6 | 0.00 | 0.00 | 0.00 | 46 | 1011.0 |
| 20260509214515 | 92 | 163 | 1.7 | 2.6 | 0.00 | 0.00 | 0.00 | 46 | 1010.9 |
| 20260509214012 | 93 | 129 | 0.0 | 0.9 | 0.00 | 0.00 | 0.00 | 45 | 1011.2 |
| 20260509213508 | 92 | 288 | 0.9 | 0.9 | 0.00 | 0.00 | 0.00 | 48 | 1011.0 |
| 20260509213006 | 91 | 289 | 1.7 | 2.6 | 0.00 | 0.00 | 0.00 | 49 | 1011.2 |
| 20260509212503 | 92 | 89 | 0.9 | 0.9 | 0.00 | 0.00 | 0.00 | 47 | 1011.0 |
| 20260509211959 | 93 | 348 | 0.9 | 1.7 | 0.00 | 0.00 | 0.00 | 47 | 1011.1 |
| 20260509211454 | 92 | 221 | 0.9 | 0.9 | 0.00 | 0.00 | 0.00 | 47 | 1010.8 |
| 20260509210951 | 92 | 337 | 0.0 | 0.9 | 0.00 | 0.00 | 0.00 | 48 | 1011.0 |
| 20260509210449 | 92 | 176 | 0.0 | 0.9 | 0.00 | 0.00 | 0.00 | 47 | 1011.2 |
| 20260509205944 | 92 | 224 | 0.9 | 1.7 | 0.00 | 0.00 | 0.00 | 47 | 1011.1 |
| 20260509205439 | 92 | 203 | 0.9 | 1.7 | 0.00 | 0.00 | 0.00 | 46 | 1011.5 |
| 20260509204935 | 92 | 92 | 0.9 | 1.7 | 0.00 | 0.00 | 0.00 | 48 | 1011.6 |
| 20260509204431 | 92 | 271 | 2.6 | 4.3 | 0.00 | 0.00 | 0.00 | 47 | 1011.7 |
| 20260509203928 | 92 | 240 | 2.6 | 2.6 | 0.00 | 0.00 | 0.00 | 47 | 1011.9 |
| 20260509203424 | 92 | 266 | 2.6 | 2.6 | 0.00 | 0.00 | 0.00 | 46 | 1011.6 |
| 20260509202921 | 92 | 267 | 1.7 | 1.7 | 0.00 | 0.00 | 0.00 | 48 | 1011.9 |
| 20260509202417 | 91 | 42 | 0.0 | 0.9 | 0.00 | 0.00 | 0.00 | 50 | 1011.8 |
| 20260509201912 | 91 | 250 | 1.7 | 2.6 | 0.00 | 0.00 | 0.00 | 48 | 1011.8 |
| 20260509201408 | 91 | 247 | 1.7 | 1.7 | 0.00 | 0.00 | 0.00 | 50 | 1012.0 |
| 20260509200905 | 91 | 264 | 1.7 | 1.7 | 0.00 | 0.00 | 0.00 | 51 | 1011.9 |
| 20260509200405 | 92 | 246 | 1.7 | 2.6 | 0.00 | 0.00 | 0.00 | 50 | 1011.9 |
| 20260509195902 | 91 | 203 | 1.7 | 1.7 | 0.00 | 0.00 | 0.00 | 52 | 1012.4 |
| 20260509195403 | 91 | 242 | 1.7 | 2.6 | 0.00 | 0.00 | 0.00 | 50 | 1012.2 |
| 20260509194902 | 90 | 264 | 0.9 | 0.9 | 0.00 | 0.00 | 0.00 | 52 | 1012.5 |
| 20260509194359 | 90 | 13 | 0.9 | 1.7 | 0.00 | 0.00 | 0.00 | 54 | 1012.7 |
| 20260509193855 | 89 | 267 | 2.6 | 2.6 | 0.00 | 0.00 | 0.00 | 55 | 1012.7 |
| 20260509193355 | 88 | 351 | 1.7 | 1.7 | 0.00 | 0.00 | 0.00 | 57 | 1012.9 |
| 20260509192852 | 87 | 37 | 0.9 | 1.7 | 0.00 | 0.00 | 0.00 | 57 | 1012.7 |
| 20260509192348 | 87 | 354 | 0.0 | 0.9 | 0.00 | 0.00 | 0.00 | 56 | 1013.0 |
| 20260509191843 | 88 | 8 | 1.7 | 2.6 | 0.00 | 0.00 | 0.00 | 55 | 1013.1 |
| 20260509191339 | 89 | 340 | 0.9 | 1.7 | 0.00 | 0.00 | 0.00 | 55 | 1012.9 |
| 20260509190835 | 89 | 77 | 0.9 | 0.9 | 0.00 | 0.00 | 0.00 | 55 | 1013.0 |
| 20260509190332 | 87 | 68 | 0.9 | 1.7 | 0.00 | 0.00 | 0.00 | 58 | 1013.1 |
| 20260509185830 | 86 | 29 | 0.9 | 1.7 | 0.00 | 0.00 | 0.00 | 59 | 1013.3 |
| 20260509185326 | 87 | 117 | 0.0 | 0.9 | 0.00 | 0.00 | 0.00 | 58 | 1013.1 |
| 20260509184824 | 88 | 346 | 0.9 | 0.9 | 0.00 | 0.00 | 0.00 | 55 | 1012.9 |
| 20260509184321 | 88 | 283 | 1.7 | 1.7 | 0.00 | 0.00 | 0.00 | 58 | 1013.0 |
| 20260509183817 | 89 | 337 | 0.9 | 2.6 | 0.00 | 0.00 | 0.00 | 56 | 1013.2 |
| 20260509183312 | 89 | 316 | 1.7 | 1.7 | 0.00 | 0.00 | 0.00 | 57 | 1013.3 |
| 20260509182808 | 88 | 353 | 2.6 | 2.6 | 0.00 | 0.00 | 0.00 | 56 | 1013.4 |
| 20260509182307 | 89 | 290 | 3.5 | 5.2 | 0.00 | 0.00 | 0.00 | 56 | 1013.4 |
| 20260509181803 | 88 | 199 | 2.6 | 2.6 | 0.00 | 0.00 | 0.00 | 55 | 1013.6 |
| 20260509181300 | 88 | 23 | 1.7 | 2.6 | 0.00 | 0.00 | 0.00 | 57 | 1013.8 |
| 20260509180758 | 88 | 211 | 3.5 | 4.3 | 0.00 | 0.00 | 0.00 | 57 | 1013.7 |
| 20260509180253 | 87 | 66 | 0.9 | 0.9 | 0.00 | 0.00 | 0.00 | 61 | 1013.8 |
| 20260509175750 | 86 | 241 | 1.7 | 2.6 | 0.00 | 0.00 | 0.00 | 59 | 1013.9 |
| 20260509175246 | 87 | 53 | 1.7 | 2.6 | 0.00 | 0.00 | 0.00 | 58 | 1013.9 |
| 20260509174743 | 86 | 133 | 0.9 | 1.7 | 0.00 | 0.00 | 0.00 | 61 | 1013.8 |
| 20260509174238 | 86 | 32 | 1.7 | 2.6 | 0.00 | 0.00 | 0.00 | 59 | 1013.8 |
| 20260509173734 | 86 | 203 | 2.6 | 2.6 | 0.00 | 0.00 | 0.00 | 61 | 1014.0 |
| 20260509173230 | 86 | 100 | 0.0 | 0.0 | 0.00 | 0.00 | 0.00 | 63 | 1013.9 |
| 20260509172726 | 85 | 270 | 3.5 | 4.3 | 0.00 | 0.00 | 0.00 | 61 | 1014.1 |
| 20260509172223 | 86 | 343 | 0.9 | 1.7 | 0.00 | 0.00 | 0.00 | 61 | 1013.8 |
| 20260509171718 | 84 | 46 | 0.0 | 0.9 | 0.00 | 0.00 | 0.00 | 66 | 1014.0 |
| 20260509171215 | 84 | 56 | 0.9 | 0.9 | 0.00 | 0.00 | 0.00 | 66 | 1014.0 |
| 20260509170712 | 85 | 131 | 1.7 | 1.7 | 0.00 | 0.00 | 0.00 | 65 | 1014.1 |
| 20260509170208 | 85 | 314 | 2.6 | 2.6 | 0.00 | 0.00 | 0.00 | 66 | 1014.0 |
| 20260509165706 | 85 | 250 | 2.6 | 2.6 | 0.00 | 0.00 | 0.00 | 64 | 1014.1 |
| 20260509165201 | 84 | 28 | 1.7 | 1.7 | 0.00 | 0.00 | 0.00 | 68 | 1014.2 |
| 20260509164658 | 83 | 352 | 2.6 | 4.3 | 0.00 | 0.00 | 0.00 | 70 | 1014.0 |
| 20260509164153 | 83 | 60 | 0.9 | 0.9 | 0.00 | 0.00 | 0.00 | 71 | 1014.1 |
| 20260509163651 | 81 | 21 | 1.7 | 1.7 | 0.00 | 0.00 | 0.00 | 73 | 1014.5 |
| 20260509163147 | 82 | 56 | 0.0 | 0.0 | 0.00 | 0.00 | 0.00 | 74 | 1014.4 |
| 20260509162645 | 81 | 128 | 0.0 | 0.9 | 0.00 | 0.00 | 0.00 | 76 | 1014.6 |
| 20260509162140 | 81 | 274 | 0.9 | 1.7 | 0.00 | 0.00 | 0.00 | 78 | 1014.5 |
| 20260509161637 | 81 | 63 | 0.9 | 0.9 | 0.00 | 0.00 | 0.00 | 75 | 1014.5 |
| 20260509161132 | 80 | 219 | 2.6 | 2.6 | 0.00 | 0.00 | 0.00 | 76 | 1014.5 |
| 20260509160628 | 79 | 17 | 1.7 | 1.7 | 0.00 | 0.00 | 0.00 | 79 | 1014.5 |
| 20260509160123 | 80 | 79 | 0.0 | 0.9 | 0.00 | 0.00 | 0.00 | 80 | 1014.1 |
| 20260509155620 | 79 | 84 | 0.9 | 1.7 | 0.00 | 0.00 | 0.00 | 81 | 1014.2 |
| 20260509155116 | 78 | 115 | 1.7 | 2.6 | 0.00 | 0.00 | 0.00 | 82 | 1014.2 |
| 20260509154612 | 78 | 265 | 0.9 | 0.9 | 0.00 | 0.00 | 0.00 | 84 | 1014.1 |
| 20260509154109 | 79 | 13 | 0.9 | 1.7 | 0.00 | 0.00 | 0.00 | 82 | 1014.1 |
| 20260509153606 | 78 | 29 | 0.9 | 0.9 | 0.00 | 0.00 | 0.00 | 84 | 1014.5 |
| 20260509153103 | 77 | 63 | 0.0 | 0.9 | 0.00 | 0.00 | 0.00 | 86 | 1014.7 |
| 20260509152559 | 77 | 240 | 1.7 | 1.7 | 0.00 | 0.00 | 0.00 | 89 | 1014.8 |
| 20260509152057 | 75 | 54 | 0.0 | 0.0 | 0.00 | 0.00 | 0.00 | 94 | 1014.6 |
| 20260509151552 | 74 | 81 | 0.9 | 0.9 | 0.00 | 0.00 | 0.00 | 98 | 1014.6 |
| 20260509151050 | 74 | 84 | 0.0 | 0.0 | 0.00 | 0.00 | 0.00 | 98 | 1014.9 |
| 20260509150548 | 74 | 90 | 0.9 | 0.9 | 0.00 | 0.00 | 0.00 | 98 | 1015.0 |
| 20260509150046 | 74 | 59 | 0.0 | 0.9 | 0.00 | 0.00 | 0.00 | 99 | 1014.7 |
| 20260509145541 | 73 | 287 | 0.9 | 1.7 | 0.00 | 0.00 | 0.00 | 99 | 1014.9 |
| 20260509145037 | 72 | 75 | 0.0 | 0.9 | 0.00 | 0.00 | 0.00 | 99 | 1014.9 |
| 20260509144534 | 72 | 72 | 0.0 | 0.0 | 0.00 | 0.00 | 0.00 | 99 | 1015.1 |
| 20260509144031 | 72 | 80 | 0.9 | 0.9 | 0.00 | 0.00 | 0.00 | 99 | 1014.9 |
| 20260509143528 | 72 | 68 | 0.0 | 0.0 | 0.00 | 0.00 | 0.00 | 99 | 1015.0 |
| 20260509143026 | 72 | 85 | 1.7 | 1.7 | 0.00 | 0.00 | 0.00 | 99 | 1015.0 |
| 20260509142521 | 72 | 74 | 0.0 | 0.0 | 0.00 | 0.00 | 0.00 | 99 | 1015.0 |
| 20260509142017 | 72 | 169 | 0.9 | 0.9 | 0.00 | 0.00 | 0.00 | 99 | 1015.2 |
| 20260509141514 | 72 | 335 | 0.9 | 1.7 | 0.00 | 0.00 | 0.00 | 99 | 1014.9 |
| 20260509141010 | 72 | 64 | 0.0 | 0.0 | 0.00 | 0.00 | 0.00 | 99 | 1014.5 |
| 20260509140507 | 72 | 68 | 0.0 | 0.0 | 0.00 | 0.00 | 0.00 | 99 | 1014.1 |
| 20260509140006 | 72 | 73 | 0.0 | 0.0 | 0.00 | 0.00 | 0.00 | 99 | 1013.9 |
| 20260509135502 | 71 | 50 | 0.0 | 0.0 | 0.00 | 0.00 | 0.00 | 99 | 1014.0 |
| 20260509134959 | 71 | 51 | 0.0 | 0.0 | 0.00 | 0.00 | 0.00 | 99 | 1013.9 |
| 20260509134457 | 71 | 31 | 1.7 | 1.7 | 0.00 | 0.00 | 0.00 | 99 | 1013.8 |
| 20260509133954 | 71 | 48 | 0.0 | 0.0 | 0.00 | 0.00 | 0.00 | 99 | 1013.9 |
| 20260509133450 | 71 | 51 | 0.0 | 0.0 | 0.00 | 0.00 | 0.00 | 99 | 1013.9 |
| 20260509132948 | 71 | 344 | 0.0 | 0.9 | 0.00 | 0.00 | 0.00 | 99 | 1013.9 |
| 20260509132446 | 71 | 48 | 0.0 | 0.9 | 0.00 | 0.00 | 0.00 | 99 | 1014.1 |
| 20260509131943 | 71 | 42 | 0.0 | 0.0 | 0.00 | 0.00 | 0.00 | 99 | 1014.0 |
| 20260509131440 | 71 | 56 | 0.0 | 0.0 | 0.00 | 0.00 | 0.00 | 99 | 1014.1 |
| 20260509130937 | 71 | 47 | 0.0 | 0.9 | 0.00 | 0.00 | 0.00 | 99 | 1013.9 |
| 20260509130432 | 71 | 30 | 0.9 | 0.9 | 0.00 | 0.00 | 0.00 | 99 | 1014.1 |
| 20260509125930 | 71 | 71 | 0.9 | 0.9 | 0.00 | 0.00 | 0.00 | 99 | 1014.0 |
| 20260509125426 | 71 | 50 | 0.0 | 0.9 | 0.00 | 0.00 | 0.00 | 99 | 1013.8 |
| 20260509124922 | 71 | 57 | 0.0 | 0.0 | 0.00 | 0.00 | 0.00 | 99 | 1013.9 |
| 20260509124419 | 71 | 70 | 0.0 | 0.0 | 0.00 | 0.00 | 0.00 | 99 | 1013.7 |
| 20260509123917 | 71 | 70 | 1.7 | 2.6 | 0.00 | 0.00 | 0.00 | 99 | 1013.9 |
| 20260509123414 | 71 | 46 | 1.7 | 1.7 | 0.00 | 0.00 | 0.00 | 99 | 1014.1 |
| 20260509122909 | 71 | 52 | 0.9 | 0.9 | 0.00 | 0.00 | 0.00 | 99 | 1013.9 |
| 20260509122407 | 71 | 73 | 0.0 | 0.9 | 0.00 | 0.00 | 0.00 | 99 | 1013.8 |
| 20260509121903 | 71 | 68 | 0.9 | 1.7 | 0.00 | 0.00 | 0.00 | 99 | 1013.8 |
| 20260509121400 | 71 | 116 | 0.0 | 0.9 | 0.00 | 0.00 | 0.00 | 99 | 1013.9 |
| 20260509120859 | 71 | 44 | 0.0 | 0.0 | 0.00 | 0.00 | 0.00 | 99 | 1014.2 |
| 20260509120356 | 71 | 92 | 0.9 | 0.9 | 0.00 | 0.00 | 0.00 | 99 | 1014.2 |
| 20260509115854 | 71 | 58 | 0.0 | 0.9 | 0.00 | 0.00 | 0.00 | 99 | 1014.1 |
| 20260509115351 | 71 | 6 | 2.6 | 2.6 | 0.00 | 0.00 | 0.00 | 99 | 1014.2 |
| 20260509114849 | 71 | 50 | 0.0 | 0.9 | 0.00 | 0.00 | 0.00 | 99 | 1014.4 |
| 20260509114347 | 71 | 9 | 2.6 | 2.6 | 0.00 | 0.00 | 0.00 | 99 | 1014.1 |
| 20260509113846 | 71 | 26 | 0.9 | 1.7 | 0.00 | 0.00 | 0.00 | 99 | 1013.9 |
| 20260509113343 | 71 | 28 | 1.7 | 1.7 | 0.00 | 0.00 | 0.00 | 99 | 1013.8 |
| 20260509112839 | 71 | 39 | 0.9 | 0.9 | 0.00 | 0.00 | 0.00 | 98 | 1014.1 |
| 20260509112337 | 71 | 49 | 0.9 | 0.9 | 0.00 | 0.00 | 0.00 | 98 | 1013.8 |
| 20260509111834 | 71 | 2 | 0.9 | 0.9 | 0.00 | 0.00 | 0.00 | 98 | 1013.6 |
| 20260509111331 | 71 | 45 | 0.0 | 0.9 | 0.00 | 0.00 | 0.00 | 98 | 1013.5 |
| 20260509110829 | 71 | 42 | 0.9 | 0.9 | 0.00 | 0.00 | 0.00 | 98 | 1013.6 |
| 20260509110324 | 71 | 65 | 0.0 | 0.0 | 0.00 | 0.00 | 0.00 | 98 | 1013.5 |
| 20260509105823 | 71 | 47 | 0.0 | 0.9 | 0.00 | 0.00 | 0.00 | 98 | 1013.5 |
| 20260509105320 | 71 | 73 | 0.0 | 0.9 | 0.00 | 0.00 | 0.00 | 98 | 1013.5 |
| 20260509104817 | 71 | 60 | 0.0 | 0.9 | 0.00 | 0.00 | 0.00 | 98 | 1013.4 |
| 20260509104314 | 71 | 41 | 0.9 | 0.9 | 0.00 | 0.00 | 0.00 | 98 | 1013.4 |
| 20260509103812 | 71 | 108 | 0.0 | 0.0 | 0.00 | 0.00 | 0.00 | 98 | 1013.5 |
| 20260509103308 | 71 | 60 | 0.0 | 0.0 | 0.00 | 0.00 | 0.00 | 98 | 1013.6 |
| 20260509102807 | 71 | 49 | 0.9 | 1.7 | 0.00 | 0.00 | 0.00 | 98 | 1013.7 |
| 20260509102306 | 71 | 65 | 0.0 | 0.0 | 0.00 | 0.00 | 0.00 | 98 | 1013.6 |
| 20260509101800 | 71 | 59 | 0.0 | 0.0 | 0.00 | 0.00 | 0.00 | 98 | 1013.4 |
| 20260509101256 | 71 | 42 | 0.0 | 0.0 | 0.00 | 0.00 | 0.00 | 98 | 1013.5 |
| 20260509100754 | 71 | 37 | 0.9 | 1.7 | 0.00 | 0.00 | 0.00 | 98 | 1013.5 |
| 20260509100251 | 71 | 44 | 0.9 | 0.9 | 0.00 | 0.00 | 0.00 | 98 | 1013.5 |
| 20260509095747 | 71 | 73 | 0.0 | 0.9 | 0.00 | 0.00 | 0.00 | 98 | 1013.2 |
| 20260509095245 | 72 | 149 | 0.0 | 0.0 | 0.00 | 0.00 | 0.00 | 98 | 1013.1 |
| 20260509094742 | 72 | 56 | 1.7 | 1.7 | 0.00 | 0.00 | 0.00 | 98 | 1012.9 |
| 20260509094239 | 72 | 44 | 0.0 | 0.0 | 0.00 | 0.00 | 0.00 | 98 | 1012.9 |
| 20260509093737 | 72 | 70 | 0.9 | 0.9 | 0.00 | 0.00 | 0.00 | 98 | 1012.7 |
| 20260509093234 | 72 | 44 | 0.0 | 0.9 | 0.00 | 0.00 | 0.00 | 98 | 1012.7 |
| 20260509092732 | 72 | 108 | 0.0 | 0.0 | 0.00 | 0.00 | 0.00 | 98 | 1012.4 |
| 20260509092230 | 72 | 62 | 0.0 | 0.0 | 0.00 | 0.00 | 0.00 | 98 | 1012.3 |
| 20260509091727 | 72 | 84 | 0.0 | 0.9 | 0.00 | 0.00 | 0.00 | 98 | 1012.6 |
| 20260509091223 | 72 | 36 | 0.0 | 0.0 | 0.00 | 0.00 | 0.00 | 98 | 1012.6 |
| 20260509090721 | 72 | 54 | 0.0 | 0.0 | 0.00 | 0.00 | 0.00 | 98 | 1012.7 |
| 20260509090218 | 72 | 63 | 0.0 | 0.0 | 0.00 | 0.00 | 0.00 | 98 | 1012.9 |
| 20260509085716 | 72 | 57 | 0.0 | 0.0 | 0.00 | 0.00 | 0.00 | 98 | 1012.7 |
| 20260509085213 | 72 | 65 | 0.0 | 0.0 | 0.00 | 0.00 | 0.00 | 98 | 1012.8 |
| 20260509084709 | 72 | 58 | 0.0 | 0.0 | 0.00 | 0.00 | 0.00 | 98 | 1012.7 |
| 20260509084206 | 72 | 53 | 0.0 | 0.0 | 0.00 | 0.00 | 0.00 | 98 | 1012.7 |
| 20260509083704 | 72 | 55 | 0.0 | 0.0 | 0.00 | 0.00 | 0.00 | 98 | 1012.8 |